Find Starlink 31972

NORAD ID: 59923 Int'l Des: 2024-106 Owner: SPXS Country: US Constellation: starlink operational
LEOCIRCULAR

当前视图

正在加载3D地球...

About Starlink 31972

Starlink 31972 (NORAD 59923) is a starlink constellation satellite (v2 mini) launched Jun 1, 2024 by SPXS of US. It operates in LEO, CIRCULAR orbit with a mass of 730.00 kg.

关于 Starlink 31972

正在加载描述...

即将过境

Passes for default location (London). Set your location on the main map for personalized predictions.

高度历史

Loading altitude history...

两行轨道根数

1 59923U 24106B 26169.92099213 -.00000162 00000-0 36367-5 0 9990
2 59923 43.0030 120.9243 0001060 272.2473 87.8258 15.27573476116053
Epoch: Jun 18, 2026 • Age: 8 hours

当前状态

高度 484.5 km
速度 7.62 km/s
星下点 -10.32°S, 112.16°E
发射日期 Jun 1, 2024
运行时间 2 years
类型 internet

技术详情

分类 Payload
质量 730.00 kg
干质量 700.00 kg
总质量 730.00 kg
长度 0.30 m
直径 4.10 m
跨度 29.00 m
形状 Box + pan
制造商 SPXS
平台类型 Starlink V2M
阶段状态 In Orbit
所有者/国家 SPXS/US

Most Searched